TimeCST,TemperatureF,Dew PointF,Humidity,Sea Level PressureIn,VisibilityMPH,Wind Direction,Wind SpeedMPH,Gust SpeedMPH,PrecipitationIn,Events,Conditions,WindDirDegrees,DateUTC
12:00 AM,67,61,77,29.90,12,ENE,6.9,,,,Clear,60,2013-07-31 06:00:00
12:00 AM,68.0,60.8,78,30.06,-9999.0,ENE,6.9,-,N/A,,Clear,60,2013-07-31 06:00:00
1:00 AM,68.0,60.8,78,30.05,-9999.0,ENE,4.6,-,N/A,,Clear,60,2013-07-31 07:00:00
2:00 AM,68.0,60.8,78,30.02,-9999.0,NNE,6.9,-,N/A,,Clear,30,2013-07-31 08:00:00
3:00 AM,69,62,71,29.90,12,East,6.9,,,,Partly Cloudy,80,2013-07-31 09:00:00
3:00 AM,69.8,62.6,78,30.02,-9999.0,NNE,6.9,-,N/A,,Clear,30,2013-07-31 09:00:00
4:00 AM,68.0,62.6,83,30.04,-9999.0,SW,2.3,-,N/A,,Clear,220,2013-07-31 10:00:00
5:00 AM,66.2,62.6,88,30.03,-9999.0,ENE,3.5,-,N/A,,Clear,60,2013-07-31 11:00:00
6:00 AM,68,62,74,29.98,12,SSE,3.5,,,,Scattered Clouds,160,2013-07-31 12:00:00
6:00 AM,68.0,62.6,83,30.08,6.2,SSE,3.5,-,N/A,,Mostly Cloudy,160,2013-07-31 12:00:00
7:00 AM,69.8,62.6,78,30.08,6.2,NNE,4.6,-,N/A,Rain,Light Rain,30,2013-07-31 13:00:00
8:00 AM,69.8,62.6,78,30.10,6.2,ENE,5.8,-,N/A,,Mostly Cloudy,70,2013-07-31 14:00:00
9:00 AM,74,64,62,29.95,12,East,4.6,,,,Overcast,80,2013-07-31 15:00:00
9:00 AM,73.4,64.4,73,30.10,6.2,East,4.6,-,N/A,,Mostly Cloudy,80,2013-07-31 15:00:00
10:00 AM,75.2,62.6,65,30.07,6.2,ESE,8.1,-,N/A,,Mostly Cloudy,120,2013-07-31 16:00:00
11:00 AM,77.0,60.8,57,30.08,6.2,East,10.4,-,N/A,,Mostly Cloudy,80,2013-07-31 17:00:00
12:00 PM,79,60,43,29.88,12,East,12.7,,,,Overcast,80,2013-07-31 18:00:00
12:00 PM,78.8,60.8,54,30.05,6.2,East,12.7,24.2,N/A,,Mostly Cloudy,80,2013-07-31 18:00:00
1:00 PM,78.8,59.0,51,30.03,-9999.0,ENE,10.4,-,N/A,,Clear,70,2013-07-31 19:00:00
2:00 PM,82.4,60.8,48,29.99,-9999.0,East,6.9,-,N/A,,Clear,90,2013-07-31 20:00:00
3:00 PM,74,69,79,29.86,12,SW,17.3,,,,Overcast,230,2013-07-31 21:00:00
3:00 PM,73.4,69.8,88,30.01,6.2,SW,17.3,-,N/A,,Mostly Cloudy,230,2013-07-31 21:00:00
3:25 PM,73.4,68.0,83,30.01,6.2,West,13.8,-,N/A,Rain-Thunderstorm,Light Thunderstorms and Rain,260,2013-07-31 21:25:00
4:00 PM,73.4,68.0,83,30.02,1.9,West,12.7,-,N/A,Rain-Thunderstorm,Thunderstorms and Rain,260,2013-07-31 22:00:00
5:00 PM,71.6,69.8,94,30.03,3.1,SW,9.2,-,N/A,,Mostly Cloudy,220,2013-07-31 23:00:00
6:00 PM,70,69,94,29.86,1,SSW,5.8,,,,Mist,200,2013-08-01 00:00:00
6:00 PM,69.8,68.0,94,30.01,1.2,SSW,5.8,-,N/A,,Mostly Cloudy,200,2013-08-01 00:00:00
7:00 PM,69.8,68.0,94,30.03,3.1,South,2.3,-,N/A,,Scattered Clouds,190,2013-08-01 01:00:00
8:00 PM,68.0,66.2,94,30.07,6.2,NNW,5.8,-,N/A,Fog,Patches of Fog,340,2013-08-01 02:00:00
9:00 PM,68,64,84,29.91,6,ENE,2.3,,,,Scattered Clouds,70,2013-08-01 03:00:00
9:00 PM,68.0,64.4,88,30.07,6.2,ENE,2.3,-,N/A,Fog,Patches of Fog,70,2013-08-01 03:00:00
10:00 PM,68.0,62.6,83,30.09,6.2,ESE,2.3,-,N/A,,Mostly Cloudy,110,2013-08-01 04:00:00
11:00 PM,68.0,64.4,88,30.09,-9999.0,NNE,3.5,-,N/A,,Clear,20,2013-08-01 05:00:00